Weather History for Hettinger, ND

Change the Weather History Date:

Friday, May 18, 2012

  Actual Average Record
Temperature  
Mean Temperature 64 °F -  
Max Temperature 76 °F 66 °F 90 °F (2006)
Min Temperature 54 °F 40 °F 30 °F (2002)
Degree Days  
Heating Degree Days 1    
Cooling Degree Days 0 0  
Month to date cooling degree days 0  
Year to date cooling degree days 0  
Growing Degree Days 14 (Base 50)    
Moisture  
Dew Point 49 °F    
Average Humidity 64    
Maximum Humidity 94    
Minimum Humidity 43    
Precipitation  
Precipitation T in 0.08 in 0.90 in (2005)
Month to date precipitation 1.00 1.35  
Year to date precipitation 4.69 4.31  
Sea Level Pressure  
Sea Level Pressure 29.64 in    
Wind  
Wind Speed 10 mph (North)    
Max Wind Speed 22 mph    
Max Gust Speed 31 mph    
Visibility 9 miles    
Events Rain    
T = Trace of Precipitation, MM = Missing Value Source: NWS Daily Summary

Daily Weather History Graph

Daily Weather History Graph

Search for Another Location

Airport:

Trip Planner

Search our weather history database for the weather conditions in past years. The results will help you decide how hot, cold, wet, or windy it might be!

Date:

Astronomy

May. 18, 2012 Rise Set
Actual Time 5:14 AM MDT 8:20 PM MDT
Civil Twilight 4:38 AM MDT 8:56 PM MDT
Nautical Twilight 3:53 AM MDT 9:42 PM MDT
Astronomical Twilight 2:57 AM MDT 10:38 PM MDT
Moon 3:50 AM MDT (5/18) 6:27 PM MDT (5/18)
Length of Visible Light 16h 17m
Length of Day
15h 05m
Waning Crescent, 4% of the Moon is Illuminated
May 18
Waning Crescent
May 20
New
May 28
First Quarter
Jun 4
Full
Jun 11
Last Quarter

Hourly Weather History & Observations

Time (MDT) Temp. Dew Point Humidity Pressure Visibility Wind Dir Wind Speed Gust Speed Precip Events Conditions
12:53 AM 59.0 °F 45.0 °F 60% 29.61 in 10.0 mi NE 13.8 mph - N/A   Clear
1:53 AM 59.0 °F 45.0 °F 60% 29.60 in 10.0 mi ENE 9.2 mph - N/A   Clear
2:53 AM 55.9 °F 46.0 °F 69% 29.62 in 10.0 mi WSW 3.5 mph - N/A   Mostly Cloudy
3:53 AM 55.0 °F 46.0 °F 72% 29.60 in 10.0 mi North 3.5 mph - N/A   Clear
4:53 AM 55.9 °F 45.0 °F 67% 29.58 in 10.0 mi North 5.8 mph - N/A   Mostly Cloudy
5:53 AM 55.0 °F 45.0 °F 69% 29.60 in 10.0 mi North 9.2 mph - N/A   Mostly Cloudy
6:53 AM 55.9 °F 44.1 °F 64% 29.60 in 10.0 mi NNE 16.1 mph - N/A   Overcast
7:53 AM 55.9 °F 46.0 °F 69% 29.60 in 10.0 mi NNE 12.7 mph - 0.00 in   Partly Cloudy
8:53 AM 62.1 °F 46.9 °F 58% 29.59 in 10.0 mi NE 12.7 mph - N/A   Clear
9:53 AM 64.9 °F 48.9 °F 56% 29.59 in 10.0 mi NE 9.2 mph - N/A   Mostly Cloudy
10:53 AM 66.9 °F 50.0 °F 54% 29.59 in 10.0 mi NNE 8.1 mph - N/A   Scattered Clouds
11:53 AM 66.9 °F 51.1 °F 57% 29.60 in 10.0 mi NNE 6.9 mph - N/A   Mostly Cloudy
12:53 PM 69.1 °F 52.0 °F 54% 29.59 in 10.0 mi North 9.2 mph - N/A   Mostly Cloudy
1:53 PM 71.1 °F 53.1 °F 53% 29.61 in 10.0 mi NNW 9.2 mph - N/A   Scattered Clouds
2:53 PM 72.0 °F 51.1 °F 48% 29.61 in 10.0 mi North 8.1 mph - N/A   Partly Cloudy
3:53 PM 73.9 °F 50.0 °F 43% 29.61 in 10.0 mi North 9.2 mph - N/A   Clear
4:53 PM 73.0 °F 51.1 °F 46% 29.62 in 10.0 mi NE 6.9 mph - N/A   Clear
5:53 PM 71.1 °F 51.1 °F 49% 29.63 in 10.0 mi ENE 8.1 mph - N/A   Clear
6:53 PM 69.1 °F 53.1 °F 57% 29.65 in 10.0 mi NE 5.8 mph - N/A   Clear
7:53 PM 66.0 °F 53.1 °F 63% 29.65 in 10.0 mi NE 4.6 mph - N/A   Overcast
8:53 PM 64.0 °F 52.0 °F 65% 29.69 in 10.0 mi NNW 8.1 mph - N/A   Overcast
9:53 PM 60.1 °F 51.1 °F 72% 29.71 in 10.0 mi NNW 17.3 mph - N/A   Overcast
10:51 PM 55.4 °F 53.6 °F 94% 29.78 in 5.0 mi WNW 16.1 mph 28.8 mph 0.04 in Rain Heavy Rain
10:53 PM 55.9 °F 53.1 °F 90% 29.75 in 4.0 mi NW 18.4 mph 27.6 mph 0.05 in Rain Rain
11:34 PM 55.4 °F 51.8 °F 88% 29.76 in 4.0 mi NNW 18.4 mph 27.6 mph 0.14 in Rain Rain
11:53 PM 53.1 °F 51.1 °F 93% 29.74 in 4.0 mi NNW 21.9 mph 31.1 mph 0.23 in Rain Rain